Wind_Speed
51 51 50 49 48 48 47 47 46 46 45 44 44 44 43 42 41 40 39 37 35 32 31 29 28 27 27 26 26 26 25 25 25 26 26 26 27 27
52 51 51 50 49 48 48 47 47 46 45 45 44 44 42 41 40 39 37 35 33 31 29 28 27 27 26 26 25 25 24 24 24 25 25 26 26 26
52 51 51 50 49 48 48 47 46 46 45 45 44 42 41 40 39 37 35 33 31 30 28 27 27 26 26 25 25 24 24 24 24 25 25 26 26 26
50 49 49 49 48 47 46 46 45 45 44 43 42 41 39 38 36 34 32 31 30 29 28 27 27 26 25 25 25 25 25 25 25 25 25 25 26 26
48 48 47 46 46 45 44 44 44 43 42 41 40 38 37 35 33 32 32 30 29 28 27 27 26 26 26 26 26 26 26 26 26 26 26 27 27 28
46 46 45 44 44 43 43 42 41 40 40 39 37 36 34 33 32 31 31 30 29 28 27 27 27 26 26 26 26 27 27 27 27 28 28 28 29 29
43 43 43 42 42 41 40 40 39 38 37 36 34 33 32 32 31 31 30 29 29 28 28 27 27 27 27 28 28 28 28 29 29 29 30 30 30 31
41 41 41 41 40 39 39 38 37 35 34 33 33 32 32 31 31 30 30 29 29 29 29 28 29 29 29 29 29 30 30 31 31 31 31 32 32 33
40 40 39 39 38 38 37 36 35 34 33 32 32 32 31 31 31 30 30 30 30 30 30 30 30 31 31 31 31 32 32 33 33 33 33 34 34 35
39 38 37 37 37 36 35 34 33 32 31 31 31 31 30 30 31 31 31 31 31 31 31 32 32 33 33 33 34 34 34 35 35 36 36 36 37 37
36 36 35 35 34 33 32 31 31 30 30 30 30 30 30 31 31 31 31 31 32 32 33 33 34 34 35 35 36 36 36 37 37 38 38 39 39 39
33 32 32 32 31 31 31 30 30 29 29 29 30 30 31 31 31 32 32 32 33 34 34 35 35 36 36 37 37 37 38 38 39 39 40 40 41 41
31 30 30 29 29 30 30 29 29 29 29 30 31 31 32 32 32 33 33 34 34 35 36 36 37 37 37 38 38 39 39 39 40 40 41 42 42 43
29 29 28 28 28 28 28 28 29 29 30 31 31 31 32 32 33 34 34 35 36 36 36 37 37 38 38 39 40 40 41 41 41 42 42 43 43 43
28 27 27 27 26 27 27 28 28 29 30 30 31 32 32 33 33 34 35 36 36 37 38 38 39 39 39 40 41 42 42 42 42 42 43 43 43 44
26 26 26 26 26 27 27 28 28 29 30 31 32 33 33 34 35 36 37 37 38 39 39 39 39 39 40 40 41 42 42 42 43 42 43 43 44 45
25 25 25 26 26 27 27 28 29 30 31 32 33 34 34 35 36 37 38 39 39 40 40 40 40 40 40 41 42 43 43 43 43 42 42 43 45 45
26 26 26 27 27 28 29 30 31 32 32 33 34 35 36 37 38 38 39 40 40 40 40 40 40 40 41 42 43 43 44 43 43 43 43 43 45 46
27 28 28 29 29 30 31 32 33 33 34 35 36 36 37 38 39 39 39 40 40 40 40 41 41 42 42 43 43 44 44 44 44 44 44 44 44 46
29 29 30 31 32 33 33 34 35 35 36 36 37 38 38 38 39 39 40 40 40 41 42 43 43 43 43 43 43 45 46 45 45 45 46 45 45 46
31 32 33 33 34 34 35 35 36 36 37 37 38 38 39 39 39 40 40 40 41 42 43 44 44 44 44 44 44 45 47 47 47 46 47 46 46 46
33 33 34 34 34 35 35 36 36 37 37 38 38 39 39 39 39 40 40 40 41 42 43 44 44 45 45 45 45 46 48 49 49 48 48 48 47 45
33 33 34 34 35 35 36 36 37 37 38 38 38 38 39 39 39 39 40 41 42 42 43 44 45 46 46 46 46 47 48 49 50 49 50 50 48 45
Wind_Direction
280 280 281 282 282 282 283 283 284 285 285 286 287 288 288 289 289 289 289 289 287 288 287 287 287 287 288 287 285 283 281 279 277 275 273 273 270 268
279 279 280 280 281 281 282 282 283 283 284 285 285 286 286 286 286 286 286 286 285 285 285 285 286 287 287 285 285 284 282 281 278 275 274 273 272 269
278 278 279 279 279 279 280 281 281 282 282 283 283 283 283 283 283 283 283 282 283 283 283 283 285 286 286 285 284 283 282 280 279 278 276 275 273 271
278 279 279 279 278 278 279 279 280 280 281 281 281 281 281 281 280 280 280 280 281 281 281 283 284 285 284 285 284 284 283 281 280 279 277 276 274 272
278 278 278 278 277 277 278 278 278 279 279 279 279 279 279 278 277 277 277 278 279 279 281 282 283 284 284 284 284 283 283 282 281 280 278 276 274 272
276 276 277 276 276 276 277 277 277 277 278 278 277 277 276 275 274 275 276 277 278 279 280 281 282 283 284 284 284 283 283 282 282 281 279 278 275 273
276 276 276 276 276 276 276 277 276 276 276 276 274 273 273 273 273 274 275 276 277 278 279 280 281 283 284 284 284 284 283 282 282 281 279 277 276 274
276 276 276 275 275 275 275 275 274 273 273 272 271 272 272 272 273 273 274 276 277 278 278 280 282 283 284 284 284 284 284 283 281 280 279 278 277 276
276 276 275 275 274 274 273 272 272 271 270 270 270 270 271 272 274 274 275 277 278 278 279 281 282 283 283 284 284 284 283 283 281 280 279 278 278 276
275 275 274 273 273 272 271 271 270 270 270 270 270 271 272 274 275 276 277 278 279 280 281 282 283 283 283 283 284 284 283 282 282 281 280 279 278 277
274 273 273 272 272 271 270 269 270 269 268 269 270 271 273 275 276 277 277 278 280 281 282 283 283 283 283 283 283 283 283 283 282 281 281 280 279 278
273 272 272 272 271 270 269 269 269 269 269 270 271 272 274 276 277 278 279 280 281 282 283 283 284 284 284 284 284 284 283 283 283 282 281 281 280 278
272 271 271 271 270 270 269 270 270 270 270 272 273 274 276 278 279 280 280 281 282 283 284 284 284 284 284 284 284 284 284 284 284 283 282 282 281 280
271 270 270 270 271 270 271 271 272 273 274 274 276 277 278 279 280 281 282 283 284 285 285 286 285 285 285 285 285 285 285 285 284 284 283 282 281 280
270 270 270 269 270 271 272 273 274 275 276 277 278 280 281 282 283 283 284 285 285 286 287 287 286 286 286 286 286 286 286 286 285 285 284 283 282 281
270 270 270 270 271 272 273 274 276 278 279 279 280 282 283 283 284 285 285 286 286 287 287 287 287 287 287 288 288 288 288 287 287 286 286 284 283 282
269 270 271 272 274 274 276 277 279 280 281 282 283 283 284 285 286 286 286 287 287 288 288 288 288 287 288 288 289 289 289 288 288 287 286 285 284 283
268 269 271 273 274 276 277 279 280 281 282 283 283 284 285 286 287 287 287 287 288 288 289 289 289 289 289 290 290 289 289 289 288 288 287 287 286 285
269 271 272 274 275 277 279 280 281 283 283 284 285 286 287 287 288 288 288 288 289 289 289 289 290 290 290 291 290 290 290 290 289 289 288 288 286 286
270 272 274 275 277 279 280 281 282 283 284 285 285 287 287 288 288 288 288 288 289 289 290 290 291 291 291 290 290 290 291 290 290 290 289 288 287 286
271 273 275 276 278 279 281 282 283 283 284 285 286 287 287 288 289 289 289 289 289 290 291 291 291 292 291 291 290 290 291 291 291 290 289 289 289 287
272 274 275 277 279 280 282 283 284 284 285 286 287 287 288 288 289 289 289 290 291 291 292 292 293 293 292 292 291 291 291 292 292 291 290 289 289 287
272 274 276 278 279 280 282 284 285 285 286 287 288 288 289 289 290 290 290 291 292 292 293 293 293 294 293 293 293 292 292 292 292 293 292 291 289 287
Height
5743 5742 5740 5739 5737 5735 5733 5731 5730 5728 5726 5723 5721 5718 5716 5713 5710 5708 5705 5703 5701 5698 5696 5695 5693 5691 5689 5687 5686 5685 5683 5682 5681 5680 5680 5680 5680 5679
5731 5729 5728 5727 5725 5723 5721 5719 5718 5716 5714 5712 5710 5707 5705 5703 5700 5698 5696 5694 5692 5690 5688 5687 5685 5683 5681 5680 5679 5677 5676 5675 5674 5674 5673 5672 5672 5672
5718 5717 5715 5714 5712 5711 5709 5707 5705 5704 5702 5700 5698 5696 5694 5692 5690 5688 5686 5685 5683 5682 5680 5679 5677 5676 5674 5673 5672 5670 5669 5668 5667 5666 5666 5665 5665 5665
5705 5704 5703 5701 5700 5698 5697 5695 5694 5692 5690 5689 5687 5685 5684 5682 5680 5679 5677 5676 5675 5673 5672 5671 5669 5668 5667 5665 5664 5663 5662 5661 5660 5659 5659 5658 5658 5657
5693 5691 5690 5689 5687 5686 5685 5683 5682 5680 5679 5678 5676 5675 5673 5672 5671 5670 5669 5667 5666 5665 5664 5663 5661 5660 5659 5658 5657 5656 5655 5654 5653 5652 5651 5650 5650 5650
5680 5679 5678 5677 5675 5674 5673 5672 5671 5669 5668 5667 5666 5665 5664 5663 5662 5661 5660 5659 5658 5657 5656 5655 5653 5652 5651 5650 5649 5648 5647 5646 5645 5644 5643 5642 5642 5641
5668 5667 5666 5665 5664 5663 5662 5661 5660 5659 5658 5657 5656 5655 5654 5654 5653 5652 5651 5650 5649 5649 5648 5646 5645 5644 5643 5642 5641 5639 5638 5637 5636 5635 5634 5634 5633 5632
5657 5656 5655 5654 5653 5652 5651 5650 5649 5648 5648 5647 5646 5646 5645 5645 5644 5643 5643 5642 5641 5640 5639 5638 5637 5636 5634 5633 5632 5630 5629 5628 5627 5626 5625 5624 5623 5622
5646 5645 5644 5643 5642 5641 5640 5640 5639 5638 5638 5638 5637 5637 5636 5636 5635 5635 5634 5633 5632 5631 5630 5629 5628 5626 5625 5624 5622 5621 5620 5618 5617 5616 5615 5614 5613 5612
5635 5634 5634 5633 5632 5631 5631 5630 5629 5629 5629 5628 5628 5628 5627 5627 5626 5626 5625 5624 5623 5622 5621 5620 5618 5617 5615 5614 5612 5611 5609 5608 5606 5605 5604 5603 5601 5600
5625 5624 5623 5623 5622 5622 5621 5621 5621 5620 5620 5619 5619 5619 5618 5618 5617 5616 5615 5615 5614 5612 5611 5610 5608 5606 5605 5603 5601 5599 5598 5596 5595 5593 5592 5590 5589 5587
5615 5615 5614 5614 5613 5613 5613 5612 5612 5612 5611 5611 5611 5610 5609 5609 5608 5607 5606 5605 5604 5602 5601 5599 5597 5595 5594 5592 5590 5588 5586 5584 5583 5581 5579 5577 5576 5574
5606 5606 5605 5605 5605 5604 5604 5604 5603 5603 5603 5603 5602 5602 5601 5600 5599 5597 5596 5595 5593 5592 5590 5588 5586 5584 5582 5580 5578 5576 5574 5572 5570 5568 5566 5564 5562 5560
5598 5597 5597 5597 5596 5596 5596 5595 5595 5595 5594 5594 5593 5592 5591 5590 5589 5587 5586 5584 5582 5581 5579 5576 5574 5572 5570 5567 5565 5563 5561 5559 5557 5555 5552 5550 5548 5545
5589 5589 5589 5589 5588 5588 5588 5587 5587 5586 5586 5585 5584 5583 5582 5580 5579 5577 5575 5573 5571 5569 5567 5565 5562 5560 5557 5555 5552 5550 5548 5545 5543 5541 5538 5535 5533 5531
5581 5581 5581 5581 5580 5580 5580 5579 5579 5578 5577 5576 5574 5573 5572 5570 5568 5566 5564 5562 5560 5557 5555 5552 5550 5548 5545 5542 5539 5536 5533 5531 5529 5527 5524 5520 5518 5515
5574 5573 5573 5573 5573 5572 5572 5571 5570 5569 5568 5566 5565 5563 5561 5559 5557 5555 5553 5550 5548 5545 5543 5540 5538 5535 5532 5529 5526 5522 5519 5517 5515 5512 5510 5506 5502 5500
5566 5566 5565 5565 5564 5564 5563 5562 5561 5559 5558 5556 5555 5553 5551 5548 5546 5544 5541 5538 5535 5533 5530 5528 5525 5522 5519 5515 5512 5508 5505 5503 5500 5498 5495 5492 5488 5484
5558 5557 5557 5556 5555 5555 5554 5552 5551 5549 5548 5546 5544 5542 5540 5537 5534 5532 5529 5526 5523 5520 5517 5515 5512 5509 5506 5502 5497 5494 5491 5488 5485 5482 5480 5477 5474 5469
5549 5548 5548 5547 5546 5545 5544 5542 5541 5539 5537 5535 5533 5531 5528 5526 5523 5520 5517 5514 5511 5508 5505 5502 5499 5496 5493 5489 5485 5479 5476 5474 5471 5467 5464 5461 5458 5454
5539 5539 5538 5537 5536 5535 5533 5532 5530 5528 5526 5524 5522 5519 5516 5514 5511 5508 5505 5502 5499 5496 5492 5488 5485 5483 5479 5476 5472 5466 5461 5458 5455 5452 5448 5445 5443 5439
5530 5529 5528 5527 5526 5524 5522 5521 5519 5517 5515 5512 5510 5507 5505 5502 5499 5496 5493 5490 5487 5483 5479 5475 5471 5468 5465 5461 5457 5452 5447 5442 5438 5435 5431 5429 5426 5423
5519 5519 5518 5516 5515 5513 5512 5510 5508 5505 5503 5501 5498 5495 5493 5490 5487 5484 5481 5477 5474 5470 5466 5462 5457 5453 5450 5446 5442 5438 5432 5427 5422 5419 5414 5410 5408 5406